Pagrindinis puslapis
METAR-TAF:

METAR-TAF

Oro uostai :

Šel Mera, Ekvadoras

platuma: 01-30-19S, ilguma: 078-03-46W, Aukštis: 1056 m

Dabartinis oras

Ataskaita buvo paskelbta 50 minutes, ne 23:00 UTC
Vėjas 2 kt iš Pietryčių
Temperatūra 23°C
Drėgmė 83%
Slėgis 1011 hPa
Matomumas 10 km arba daugiau
Mažai debesys ne aukštis 3000 ft
Išsisklaidę debesys ne aukštis 10000 ft

METAR: SESM 222300Z 14002KT 9999 FEW030 SCT100 23/20 Q1011 RMK A2988

Laikas: 18:50 (23:50 UTC)


TAF: trūkstamas

Orai ataskaitas ir orų prognozės (METAR, TAF).

turimą stotys yra geltonos ir raudonos taškus žemėlapyje.

Perkelti pele per norėdami pamatyti stoties vardą.

Tada spustelėkite, norėdami matyti oro stebėjimo ir prognozės.

Norėdami pakeisti žemėlapį: spustelėkite ant žalios mygtukų su juodo kryžiaus žemyn,; žalią mygtuką su brūkšneliu, jei norite nutolinti; arba žalių rodyklių gretimoms žemėlapius.


METAR-TAF: